{"data":{"norad_id":69447,"epoch":"2026-09-20T03:37:49.556064Z","epoch_age_seconds":56840,"freshness":"FRESH","line1":"1 69447U 26127E   26263.15126801  .00013391  00000+0  40673-3 0  9990","line2":"2 69447  53.1580 167.6994 0001058  90.7931 269.3192 15.34401184 16133","mean_motion":15.34401184,"eccentricity":0.0001058,"inclination_deg":53.158,"raan_deg":167.6994,"arg_perigee_deg":90.7931,"mean_anomaly_deg":269.3192,"bstar":0.00040673,"rev_number":1613,"period_min":93.847685664977,"perigee_km":461.97596058676,"apogee_km":463.42348163694,"semimajor_km":6840.8367211119,"source":"CELESTRAK","updated_at":"2026-09-20T09:00:44.199448Z"}}